カタログに戻る

STARLINK-4739

運用中通信VLEO
NORAD 53792·PAYLOAD·🇺🇸 United States

打ち上げ Sep 11, 2022 から Cape Canaveral Space Force Station

Loading…

次のパス (今後24時間)

TLE

最新Source: CelesTrak SupGP

元期: Sep 14, 2026, 21:40 UTC

1 53792C 22111V   26257.90326389 -.00013961  00000+0 -44937-3 0  2573
2 53792  53.1569 132.2234 0001215  88.3928 142.0917 15.31678759    18

AllMySatでSTARLINK-4739をリアルタイム追跡

Download on the App Store